Zeno Version String: V1.966-2637-GMA
Primary/Secondary Station IDs: 2300/4377
Date,Time,Msg Num,RainOrNote,ThDegC,Tmax,Tmin,StrmLvl
6-4-1,------,2-1-2,8-4-3,8-4-4,8-4-5,8-4-6,8-4-7
2003/01/28,00:44:58,1,1.63,2.05,2.76,2.20,135.00
2003/01/28,00:59:58,1,1.63,2.05,2.76,2.20,135.00
2003/01/28,01:14:58,1,1.63,2.05,2.15,2.05,135.00
2003/01/28,01:29:58,1,1.63,2.20,2.15,2.05,135.00
2003/01/28,01:44:58,1,1.63,2.15,2.15,2.05,135.00
2003/01/28,01:59:59,1,1.63,2.15,2.15,2.05,135.00
2003/01/28,02:29:58,1,1.65,2.20,2.20,2.05,135.00
2003/01/28,02:44:58,1,1.64,2.30,2.20,2.05,135.00
2003/01/28,02:59:58,1,1.64,2.45,2.20,2.05,135.00
2003/01/28,03:14:58,1,1.64,2.55,2.46,2.05,135.00
2003/01/28,03:29:58,1,1.64,2.80,2.46,2.05,135.00
2003/01/28,03:44:58,1,1.64,3.00,2.46,2.05,135.00
2003/01/28,03:59:58,1,1.64,3.00,2.46,2.05,135.00
2003/01/28,04:14:58,1,1.64,3.05,3.05,2.50,135.00
2003/01/28,04:29:58,1,1.64,3.00,3.05,2.50,135.00
2003/01/28,04:44:58,1,1.64,2.95,3.05,2.50,135.00
2003/01/28,04:59:58,1,1.64,2.80,3.05,2.50,135.00
2003/01/28,05:14:58,1,1.64,2.70,3.05,2.80,135.00
2003/01/28,05:29:58,1,1.64,2.70,3.05,2.80,135.00
2003/01/28,05:44:58,1,1.65,2.75,3.05,2.80,135.00
2003/01/28,05:59:58,1,1.64,2.85,3.05,2.80,135.00
2003/01/28,06:14:58,1,1.65,2.90,2.86,2.70,135.00
2003/01/28,06:29:58,1,1.65,3.10,2.86,2.70,135.00
2003/01/28,06:44:58,1,1.65,3.20,2.86,2.70,135.00
2003/01/28,06:59:58,1,1.66,3.30,2.86,2.70,135.00
2003/01/28,07:14:58,1,1.65,3.40,3.30,2.90,135.00
2003/01/28,07:29:58,1,1.65,3.40,3.30,2.90,135.00
2003/01/28,07:44:58,1,1.66,3.50,3.30,2.90,135.00
2003/01/28,07:59:58,1,1.66,3.55,3.30,2.90,135.00
2003/01/28,08:14:58,1,1.63,3.60,3.55,3.30,135.00
2003/01/28,08:29:58,1,1.63,3.60,3.55,3.30,135.00
2003/01/28,08:44:58,1,1.63,3.70,3.55,3.30,135.00
2003/01/28,08:59:58,1,1.63,3.85,3.55,3.30,135.00
2003/01/28,09:14:58,1,1.66,3.95,3.86,3.55,135.00
2003/01/28,09:29:58,1,1.66,4.10,3.86,3.55,135.00
2003/01/28,09:44:58,1,1.67,4.25,3.86,3.55,135.00
2003/01/28,09:59:58,1,1.67,4.40,3.86,3.55,135.00
2003/01/28,10:14:58,1,1.67,4.45,4.41,3.90,135.00
2003/01/28,10:29:58,1,1.67,4.40,4.41,3.90,135.00
2003/01/28,10:44:58,1,1.67,4.40,4.41,3.90,135.00
2003/01/28,10:59:58,1,1.67,4.45,4.41,3.90,135.00
2003/01/28,11:14:58,1,1.67,4.60,4.49,4.40,135.00
2003/01/28,11:29:58,1,1.67,4.65,4.49,4.40,135.00
2003/01/28,11:44:58,1,1.67,4.80,4.49,4.40,135.00
2003/01/28,11:59:58,1,1.67,5.05,4.49,4.40,135.00
2003/01/28,12:14:58,1,1.67,5.12,5.05,4.55,135.00
2003/01/28,12:29:58,1,1.67,5.25,5.05,4.55,135.00
2003/01/28,12:44:58,1,1.67,5.45,5.05,4.55,135.00
2003/01/28,12:59:58,1,1.67,5.50,5.05,4.55,135.00
2003/01/28,13:14:58,1,1.66,5.65,5.57,5.10,135.00
2003/01/28,13:29:58,1,1.66,5.70,5.57,5.10,135.00
2003/01/28,13:44:58,1,1.66,5.65,5.57,5.10,135.00
2003/01/28,13:59:58,1,1.67,5.60,5.57,5.10,135.00
2003/01/28,14:14:58,1,1.66,5.45,5.80,5.59,135.00
2003/01/28,14:29:58,1,1.66,5.40,5.80,5.59,135.00
2003/01/28,14:44:58,1,1.66,5.25,5.80,5.59,135.00
2003/01/28,14:59:58,1,1.66,5.20,5.80,5.59,135.00
2003/01/28,15:14:58,1,1.66,5.15,5.55,5.15,135.00
2003/01/28,15:29:58,1,1.66,5.00,5.55,5.15,135.00
2003/01/28,15:44:58,1,1.66,5.00,5.55,5.15,135.00
2003/01/28,15:59:59,1,1.66,4.90,5.55,5.15,135.00
2003/01/28,16:29:58,1,1.67,4.90,5.20,4.89,135.00
2003/01/28,16:44:58,1,1.67,5.00,5.20,4.89,135.00
2003/01/28,16:59:58,1,1.67,4.85,5.20,4.89,135.00
2003/01/28,17:14:58,1,1.67,4.80,5.00,4.80,135.00
2003/01/28,17:29:58,1,1.67,4.65,5.00,4.80,135.00
2003/01/28,17:44:58,1,1.67,4.45,5.00,4.80,135.00
2003/01/28,17:59:58,1,1.67,4.30,5.00,4.80,135.00
2003/01/28,18:14:58,1,1.67,4.20,4.89,4.30,135.00
2003/01/28,18:29:58,1,1.67,4.20,4.89,4.30,135.00
2003/01/28,18:44:58,1,1.67,4.25,4.89,4.30,135.00
2003/01/28,18:59:58,1,1.67,4.20,4.89,4.30,135.00
2003/01/28,19:14:58,1,1.67,4.10,4.25,4.20,135.00
2003/01/28,19:29:58,1,1.67,3.88,4.25,4.20,135.00
2003/01/28,19:44:58,1,1.66,3.70,4.25,4.20,135.00
2003/01/28,19:59:58,1,1.66,3.60,4.25,4.20,135.00
2003/01/28,20:14:58,1,1.66,3.40,4.15,3.60,135.00
2003/01/28,20:29:58,1,1.67,3.25,4.15,3.60,135.00
2003/01/28,20:44:58,1,1.66,3.00,4.15,3.60,135.00
2003/01/28,20:59:58,1,1.66,2.90,4.15,3.60,135.00
2003/01/28,21:14:58,1,1.67,2.70,3.51,2.88,135.00
2003/01/28,21:29:58,1,1.66,2.36,3.51,2.88,135.00
2003/01/28,21:44:58,1,1.67,2.10,3.51,2.88,135.00
2003/01/28,21:59:58,1,1.67,1.71,3.51,2.88,135.00
2003/01/28,22:14:58,1,1.67,1.50,2.80,1.69,135.00
2003/01/28,22:29:58,1,1.67,1.35,2.80,1.69,135.00
2003/01/28,22:44:58,1,1.67,1.20,2.80,1.69,135.00
2003/01/28,22:59:58,1,1.67,1.15,2.80,1.69,135.00
2003/01/28,23:14:58,1,1.67,1.00,1.58,1.12,135.00
2003/01/28,23:29:58,1,1.67,0.80,1.58,1.12,135.00
2003/01/28,23:44:58,1,1.67,0.70,1.58,1.12,135.00
2003/01/28,23:59:58,1,1.67,0.60,1.58,1.12,135.00
2003/01/29,00:00:01,2,0.04,0.00,5.80,0.60,0.00
2003/01/29,00:14:58,1,1.67,0.50,1.05,0.60,135.00
2003/01/29,00:29:58,1,1.68,0.45,1.05,0.60,135.00
2003/01/29,00:44:58,1,1.68,0.45,1.05,0.60,135.00
2003/01/29,00:59:58,1,1.68,0.40,1.05,0.60,135.00
2003/01/29,01:14:58,1,1.68,0.35,0.55,0.40,135.00
2003/01/29,01:29:58,1,1.68,0.40,0.55,0.40,135.00
2003/01/29,01:44:58,1,1.68,0.45,0.55,0.40,135.00
2003/01/29,01:59:58,1,1.68,0.40,0.55,0.40,135.00
2003/01/29,02:14:58,1,1.68,0.35,0.45,0.35,135.00
2003/01/29,02:29:58,1,1.68,0.25,0.45,0.35,135.00
2003/01/29,02:44:58,1,1.68,0.05,0.45,0.35,135.00
2003/01/29,02:59:58,1,1.67,-0.08,0.45,0.35,135.00
2003/01/29,03:14:58,1,1.67,-0.25,0.40,-0.11,135.00
2003/01/29,03:29:58,1,1.67,-0.40,0.40,-0.11,135.00
2003/01/29,03:44:58,1,1.67,-0.50,0.40,-0.11,135.00
2003/01/29,03:59:58,1,1.67,-0.90,0.40,-0.11,135.00
2003/01/29,04:14:58,1,1.68,-1.30,-0.20,-0.95,135.00
2003/01/29,04:29:58,1,1.67,-1.62,-0.20,-0.95,135.00
2003/01/29,04:44:58,1,1.68,-2.15,-0.20,-0.95,135.00
2003/01/29,04:59:59,1,1.67,-2.38,-0.20,-0.95,135.00
2003/01/29,05:29:58,1,1.69,-2.65,-1.20,-2.41,135.00
2003/01/29,05:44:58,1,1.68,-2.85,-1.20,-2.41,135.00
2003/01/29,05:59:58,1,1.67,-3.10,-1.20,-2.41,135.00
2003/01/29,06:14:58,1,1.67,-3.30,-2.45,-3.12,135.00
2003/01/29,06:29:58,1,1.67,-3.52,-2.45,-3.12,135.00
2003/01/29,06:44:58,1,1.67,-3.45,-2.45,-3.12,135.00
2003/01/29,06:59:58,1,1.68,-3.50,-2.45,-3.12,135.00
2003/01/29,07:14:58,1,1.68,-3.55,-3.21,-3.55,135.00
2003/01/29,07:29:58,1,1.67,-3.55,-3.21,-3.55,135.00
2003/01/29,07:44:58,1,1.67,-3.55,-3.21,-3.55,135.00
2003/01/29,07:59:58,1,1.67,-3.55,-3.21,-3.55,135.00
2003/01/29,08:14:58,1,1.67,-3.70,-3.50,-3.55,135.00
2003/01/29,08:29:58,1,1.67,-3.80,-3.50,-3.55,135.00
2003/01/29,08:44:58,1,1.67,-3.80,-3.50,-3.55,135.00
2003/01/29,08:59:58,1,1.68,-3.80,-3.50,-3.55,135.00
2003/01/29,09:14:58,1,1.67,-3.75,-3.60,-3.85,135.00
2003/01/29,09:29:58,1,1.67,-3.65,-3.60,-3.85,135.00
2003/01/29,09:44:58,1,1.67,-3.65,-3.60,-3.85,135.00
2003/01/29,09:59:58,1,1.68,-3.60,-3.60,-3.85,135.00
2003/01/29,10:14:58,1,1.68,-3.60,-3.60,-3.75,135.00
2003/01/29,10:29:58,1,1.68,-3.50,-3.60,-3.75,135.00
2003/01/29,10:44:58,1,1.68,-3.35,-3.60,-3.75,135.00
2003/01/29,10:59:58,1,1.68,-3.30,-3.60,-3.75,135.00
2003/01/29,11:14:58,1,1.68,-3.15,-3.27,-3.65,135.00
2003/01/29,11:29:58,1,1.68,-3.04,-3.27,-3.65,135.00
2003/01/29,11:44:58,1,1.68,-2.80,-3.27,-3.65,135.00
2003/01/29,11:59:58,1,1.68,-2.60,-3.27,-3.65,135.00
2003/01/29,12:14:58,1,1.68,-2.71,-2.55,-3.15,135.00
2003/01/29,12:29:58,1,1.68,-2.40,-2.55,-3.15,135.00
2003/01/29,12:44:58,1,1.68,-2.35,-2.55,-3.15,135.00
2003/01/29,12:59:58,1,1.68,-2.25,-2.55,-3.15,135.00
2003/01/29,13:14:58,1,1.68,-2.30,-2.24,-2.85,135.00
2003/01/29,13:29:58,1,1.68,-2.15,-2.24,-2.85,135.00
2003/01/29,13:44:58,1,1.68,-1.90,-2.24,-2.85,135.00
2003/01/29,13:59:59,1,1.68,-1.65,-2.24,-2.85,135.00
2003/01/29,14:29:58,1,1.70,-1.50,-1.62,-2.30,135.00
2003/01/29,14:44:58,1,1.68,-1.30,-1.62,-2.30,135.00
2003/01/29,14:59:58,1,1.68,-1.25,-1.62,-2.30,135.00
2003/01/29,15:14:58,1,1.68,-0.85,-1.15,-1.60,135.00
2003/01/29,15:29:58,1,1.68,-0.75,-1.15,-1.60,135.00
2003/01/29,15:44:58,1,1.68,-0.31,-1.15,-1.60,135.00
2003/01/29,15:59:58,1,1.68,-0.35,-1.15,-1.60,135.00
2003/01/29,16:14:58,1,1.68,-0.37,-0.05,-1.05,135.00
2003/01/29,16:29:58,1,1.68,-0.17,-0.05,-1.05,135.00
2003/01/29,16:44:58,1,1.68,-0.25,-0.05,-1.05,135.00
2003/01/29,16:59:58,1,1.68,0.05,-0.05,-1.05,135.00
2003/01/29,17:14:58,1,1.68,-0.25,0.30,-0.85,135.00
2003/01/29,17:29:58,1,1.68,-0.45,0.30,-0.85,135.00
2003/01/29,17:44:58,1,1.68,-0.54,0.30,-0.85,135.00
2003/01/29,17:59:58,1,1.68,-0.95,0.30,-0.85,135.00
2003/01/29,18:14:58,1,1.68,-1.13,-0.07,-0.96,135.00
2003/01/29,18:29:58,1,1.68,-1.55,-0.07,-0.96,135.00
2003/01/29,18:44:58,1,1.68,-2.12,-0.07,-0.96,135.00
2003/01/29,18:59:58,1,1.68,-2.75,-0.07,-0.96,135.00
2003/01/29,19:14:58,1,1.68,-3.10,-1.00,-2.78,135.00
2003/01/29,19:29:58,1,1.68,-3.08,-1.00,-2.78,135.00
2003/01/29,19:44:58,1,1.67,-3.55,-1.00,-2.78,135.00
2003/01/29,19:59:58,1,1.68,-3.30,-1.00,-2.78,135.00
2003/01/29,20:14:58,1,1.67,-3.44,-3.00,-3.60,135.00
2003/01/29,20:29:58,1,1.67,-3.80,-3.00,-3.60,135.00
2003/01/29,20:44:58,1,1.67,-4.10,-3.00,-3.60,135.00
2003/01/29,20:59:58,1,1.67,-4.00,-3.00,-3.60,135.00
2003/01/29,21:14:58,1,1.67,-4.30,-3.30,-4.25,135.00
2003/01/29,21:29:58,1,1.67,-4.80,-3.30,-4.25,135.00
2003/01/29,21:44:58,1,1.67,-4.60,-3.30,-4.25,135.00
2003/01/29,21:59:58,1,1.67,-4.50,-3.30,-4.25,135.00
2003/01/29,22:14:58,1,1.67,-4.60,-4.15,-4.88,135.00
2003/01/29,22:29:58,1,1.67,-4.65,-4.15,-4.88,135.00
2003/01/29,22:44:58,1,1.67,-4.80,-4.15,-4.88,135.00
2003/01/29,22:59:58,1,1.67,-4.95,-4.15,-4.88,135.00
2003/01/29,23:14:58,1,1.67,-5.40,-4.55,-4.97,135.00
2003/01/29,23:29:58,1,1.67,-5.25,-4.55,-4.97,135.00
2003/01/29,23:44:58,1,1.67,-5.93,-4.55,-4.97,135.00
2003/01/29,23:59:59,1,1.67,-6.30,-4.55,-4.97,135.00
2003/01/30,00:00:03,2,0.00,0.00,0.55,-6.35,0.00
2003/01/30,00:29:58,1,1.67,-5.95,-5.13,-6.35,135.00
2003/01/30,00:44:58,1,1.67,-5.55,-5.13,-6.35,135.00
2003/01/30,00:59:58,1,1.67,-5.40,-5.13,-6.35,135.00
2003/01/30,01:14:58,1,1.67,-5.30,-5.36,-6.50,135.00
2003/01/30,01:29:58,1,1.67,-5.80,-5.36,-6.50,135.00
2003/01/30,01:44:58,1,1.67,-6.10,-5.36,-6.50,135.00
2003/01/30,01:59:58,1,1.67,-6.15,-5.36,-6.50,135.00
2003/01/30,02:14:58,1,1.67,-5.82,-5.25,-6.15,135.00
2003/01/30,02:29:58,1,1.67,-5.55,-5.25,-6.15,135.00
2003/01/30,02:44:58,1,1.67,-5.30,-5.25,-6.15,135.00
2003/01/30,11:14:58,1,0.00,-0.20,0.00,0.00,135.00
2003/01/30,11:29:58,1,1.69,0.35,0.00,0.00,135.00
2003/01/30,11:44:58,1,1.69,1.20,0.00,0.00,135.00
2003/01/30,11:59:58,1,1.68,2.00,0.00,0.00,135.00
2003/01/30,12:14:58,1,1.69,2.77,2.06,-0.65,135.00
2003/01/30,12:29:58,1,1.69,3.51,2.06,-0.65,135.00
2003/01/30,12:44:58,1,1.67,4.40,2.06,-0.65,135.00
2003/01/30,12:59:58,1,1.69,5.20,2.06,-0.65,135.00
2003/01/30,13:14:58,1,1.69,5.90,5.30,2.34,135.00
2003/01/30,13:29:58,1,1.69,6.40,5.30,2.34,135.00
2003/01/30,13:44:58,1,1.69,7.15,5.30,2.34,135.00
2003/01/30,13:59:58,1,1.69,7.01,5.30,2.34,135.00
2003/01/30,14:14:58,1,1.69,6.75,7.53,5.90,135.00
2003/01/30,14:29:58,1,1.69,6.65,7.53,5.90,135.00
2003/01/30,14:44:58,1,1.69,6.70,7.53,5.90,135.00
2003/01/30,14:59:58,1,1.68,7.10,7.53,5.90,135.00
2003/01/30,15:14:58,1,1.68,7.12,7.10,6.52,135.00
2003/01/30,15:29:58,1,1.68,6.69,7.10,6.52,135.00
2003/01/30,15:44:58,1,1.68,6.40,7.10,6.52,135.00
2003/01/30,15:59:58,1,1.68,6.60,7.10,6.52,135.00
2003/01/30,16:14:58,1,1.67,6.89,7.25,6.40,135.00
2003/01/30,16:29:58,1,1.67,6.85,7.25,6.40,135.00
2003/01/30,16:44:58,1,1.67,6.25,7.25,6.40,135.00
2003/01/30,16:59:58,1,1.67,6.15,7.25,6.40,135.00
2003/01/30,17:14:58,1,1.68,6.10,7.45,6.10,135.00
2003/01/30,17:29:58,1,1.67,6.15,7.45,6.10,135.00
2003/01/30,17:44:58,1,1.67,6.10,7.45,6.10,135.00
2003/01/30,17:59:58,1,1.67,5.75,7.45,6.10,135.00
2003/01/30,18:14:58,1,1.67,5.32,6.20,5.73,135.00
2003/01/30,18:29:58,1,1.67,4.85,6.20,5.73,135.00
2003/01/30,18:44:58,1,1.67,4.50,6.20,5.73,135.00
2003/01/30,18:59:58,1,1.67,4.35,6.20,5.73,135.00
2003/01/30,19:14:58,1,1.67,4.25,5.51,4.34,135.00
2003/01/30,19:29:58,1,1.67,4.05,5.51,4.34,135.00
2003/01/30,19:44:58,1,1.67,3.95,5.51,4.34,135.00
2003/01/30,19:59:58,1,1.67,3.95,5.51,4.34,135.00
2003/01/30,20:14:58,1,1.67,4.15,4.30,3.90,135.00
2003/01/30,20:29:58,1,1.67,4.30,4.30,3.90,135.00
2003/01/30,20:44:58,1,1.67,4.45,4.30,3.90,135.00
2003/01/30,20:59:58,1,1.67,4.55,4.30,3.90,135.00
2003/01/30,21:14:58,1,1.67,4.70,4.56,4.01,135.00
2003/01/30,21:29:58,1,1.67,4.84,4.56,4.01,135.00
2003/01/30,21:44:58,1,1.67,4.95,4.56,4.01,135.00
2003/01/30,21:59:58,1,1.67,4.95,4.56,4.01,135.00
2003/01/30,22:14:58,1,1.67,4.75,5.00,4.60,135.00
2003/01/30,22:29:58,1,1.67,4.40,5.00,4.60,135.00
2003/01/30,22:44:58,1,1.67,4.20,5.00,4.60,135.00
2003/01/30,22:59:58,1,1.67,4.25,5.00,4.60,135.00
2003/01/30,23:14:58,1,1.67,4.15,4.86,4.15,135.00
2003/01/30,23:29:58,1,1.68,4.04,4.86,4.15,135.00
2003/01/30,23:44:58,1,1.69,4.00,4.86,4.15,135.00
2003/01/30,23:59:58,1,1.69,4.25,4.86,4.15,135.00
2003/01/31,00:00:01,2,1.69,0.00,7.53,-0.65,0.00
2003/01/31,00:14:58,1,1.69,4.35,4.25,3.95,135.00
2003/01/31,00:29:58,1,1.70,4.30,4.25,3.95,135.00
2003/01/31,00:44:58,1,1.71,4.25,4.25,3.95,135.00
2003/01/31,00:59:58,1,1.72,4.15,4.25,3.95,135.00
2003/01/31,01:14:58,1,1.72,4.35,4.40,4.15,135.00
2003/01/31,01:29:58,1,1.72,4.35,4.40,4.15,135.00
2003/01/31,01:44:58,1,1.72,4.40,4.40,4.15,135.00
2003/01/31,01:59:58,1,1.72,4.45,4.40,4.15,135.00
2003/01/31,02:14:58,1,1.72,4.30,4.45,4.30,135.00
2003/01/31,02:29:58,1,1.72,4.10,4.45,4.30,135.00
2003/01/31,02:44:58,1,1.73,3.91,4.45,4.30,135.00
2003/01/31,02:59:59,1,1.74,3.70,4.45,4.30,135.00
2003/01/31,03:29:58,1,1.77,3.55,4.45,3.69,135.00
2003/01/31,03:44:58,1,1.76,3.55,4.45,3.69,135.00
2003/01/31,03:59:58,1,1.79,3.60,4.45,3.69,135.00
2003/01/31,04:14:58,1,1.82,3.50,3.60,3.55,135.00
2003/01/31,04:29:58,1,1.87,3.55,3.60,3.55,135.00
2003/01/31,04:44:58,1,1.91,3.55,3.60,3.55,135.00
2003/01/31,04:59:58,1,1.92,3.50,3.60,3.55,135.00
2003/01/31,05:14:58,1,1.94,3.55,3.60,3.50,135.00
2003/01/31,05:29:58,1,1.94,3.45,3.60,3.50,135.00
2003/01/31,05:44:58,1,1.95,3.50,3.60,3.50,135.00
2003/01/31,05:59:58,1,1.94,3.30,3.60,3.50,135.00
2003/01/31,06:14:58,1,1.94,2.99,3.55,3.26,135.00
2003/01/31,06:29:58,1,1.94,2.65,3.55,3.26,135.00
2003/01/31,06:44:58,1,1.94,2.50,3.55,3.26,135.00
2003/01/31,06:59:58,1,1.94,2.40,3.55,3.26,135.00
2003/01/31,07:14:58,1,1.94,2.58,3.06,2.37,135.00
2003/01/31,07:29:58,1,1.94,2.75,3.06,2.37,135.00
2003/01/31,07:44:58,1,1.96,2.55,3.06,2.37,135.00
2003/01/31,07:59:58,1,1.96,2.50,3.06,2.37,135.00
2003/01/31,08:14:58,1,1.96,2.45,2.75,2.45,135.00
2003/01/31,08:29:58,1,1.96,2.10,2.75,2.45,135.00
2003/01/31,08:44:58,1,1.94,2.15,2.75,2.45,135.00
2003/01/31,08:59:58,1,1.94,2.15,2.75,2.45,135.00
2003/01/31,09:14:58,1,1.94,2.48,2.60,2.05,135.00
2003/01/31,09:29:58,1,1.94,2.75,2.60,2.05,135.00
2003/01/31,09:44:58,1,1.92,2.90,2.60,2.05,135.00
2003/01/31,09:59:58,1,1.92,3.20,2.60,2.05,135.00
2003/01/31,10:14:58,1,1.92,3.70,3.23,2.35,135.00
2003/01/31,10:29:58,1,1.93,4.35,3.23,2.35,135.00
2003/01/31,10:44:58,1,1.95,4.30,3.23,2.35,135.00
2003/01/31,10:59:58,1,1.95,4.65,3.23,2.35,135.00
2003/01/31,11:14:58,1,1.94,5.25,4.69,3.50,135.00
2003/01/31,11:29:58,1,1.94,5.65,4.69,3.50,135.00
2003/01/31,11:44:58,1,1.89,5.40,4.69,3.50,135.00
2003/01/31,11:59:58,1,1.89,5.35,4.69,3.50,135.00
2003/01/31,12:14:58,1,1.93,5.25,5.93,5.05,135.00
2003/01/31,12:29:58,1,1.93,5.35,5.93,5.05,135.00
2003/01/31,12:44:58,1,1.93,5.25,5.93,5.05,135.00
2003/01/31,12:59:58,1,1.93,5.00,5.93,5.05,135.00
2003/01/31,13:14:58,1,1.93,4.90,5.45,4.90,135.00
2003/01/31,13:29:58,1,1.93,4.90,5.45,4.90,135.00
2003/01/31,13:44:58,1,1.93,4.85,5.45,4.90,135.00
2003/01/31,13:59:58,1,1.93,4.75,5.45,4.90,135.00
2003/01/31,14:14:58,1,1.93,4.45,4.94,4.71,135.00
2003/01/31,14:29:58,1,1.93,4.15,4.94,4.71,135.00
2003/01/31,14:44:58,1,1.93,4.05,4.94,4.71,135.00
2003/01/31,14:59:58,1,1.93,4.07,4.94,4.71,135.00
2003/01/31,15:14:58,1,1.93,4.15,4.60,4.00,135.00
2003/01/31,15:29:58,1,1.93,4.25,4.60,4.00,135.00
2003/01/31,15:44:58,1,1.92,4.29,4.60,4.00,135.00
2003/01/31,15:59:58,1,1.92,4.20,4.60,4.00,135.00
2003/01/31,16:14:58,1,1.92,4.25,4.30,4.10,135.00
2003/01/31,16:29:58,1,1.92,4.35,4.30,4.10,135.00
2003/01/31,16:44:58,1,1.92,4.35,4.30,4.10,135.00
2003/01/31,16:59:58,1,1.92,4.25,4.30,4.10,135.00
2003/01/31,17:14:58,1,1.92,4.09,4.35,4.24,135.00
2003/01/31,17:29:58,1,1.92,3.90,4.35,4.24,135.00
2003/01/31,17:44:58,1,1.92,3.70,4.35,4.24,135.00
2003/01/31,17:59:59,1,1.92,3.55,4.35,4.24,135.00
2003/01/31,18:29:58,1,1.94,3.45,4.20,3.54,135.00
2003/01/31,18:44:58,1,1.92,3.35,4.20,3.54,135.00
2003/01/31,18:59:58,1,1.92,3.25,4.20,3.54,135.00
2003/01/31,19:14:58,1,1.92,3.15,3.50,3.25,135.00
2003/01/31,19:29:58,1,1.92,3.15,3.50,3.25,135.00
2003/01/31,19:44:58,1,1.92,2.95,3.50,3.25,135.00
2003/02/01,11:14:58,1,0.00,6.85,0.00,0.00,135.00
2003/02/01,11:29:58,1,1.92,6.75,0.00,0.00,135.00
2003/02/01,11:44:58,1,1.92,6.85,0.00,0.00,135.00
2003/02/01,11:59:58,1,1.92,7.15,0.00,0.00,135.00
2003/02/01,12:14:58,1,1.92,8.08,7.19,6.75,135.00
2003/02/01,12:29:58,1,1.92,9.30,7.19,6.75,135.00
2003/02/01,12:44:58,1,1.93,9.78,7.19,6.75,135.00
2003/02/01,12:59:58,1,1.92,9.80,7.19,6.75,135.00
2003/02/01,13:14:58,1,1.92,9.69,10.39,7.49,135.00
2003/02/01,13:29:58,1,1.92,9.50,10.39,7.49,135.00
2003/02/01,13:44:58,1,1.92,9.75,10.39,7.49,135.00
2003/02/01,13:59:58,1,1.92,10.60,10.39,7.49,135.00
2003/02/01,14:14:58,1,1.92,10.40,10.70,9.42,135.00
2003/02/01,14:29:58,1,1.92,10.70,10.70,9.42,135.00
2003/02/01,14:44:58,1,1.92,11.25,10.70,9.42,135.00
2003/02/01,14:59:58,1,1.92,11.70,10.70,9.42,135.00
2003/02/01,15:14:58,1,1.91,11.95,11.72,10.40,135.00
2003/02/01,15:29:58,1,1.91,13.27,11.72,10.40,135.00
2003/02/01,15:44:58,1,1.91,13.94,11.72,10.40,135.00
2003/02/01,15:59:58,1,1.91,14.60,11.72,10.40,135.00
2003/02/01,16:14:58,1,1.91,14.75,14.62,11.80,135.00
2003/02/01,16:29:58,1,1.91,14.80,14.62,11.80,135.00
2003/02/01,16:44:58,1,1.91,14.65,14.62,11.80,135.00
2003/02/01,16:59:58,1,1.91,14.30,14.62,11.80,135.00
2003/02/01,17:14:58,1,1.91,14.30,15.00,14.29,135.00
2003/02/01,17:29:58,1,1.90,14.50,15.00,14.29,135.00
2003/02/01,17:44:58,1,1.90,14.20,15.00,14.29,135.00
2003/02/01,17:59:58,1,1.90,14.05,15.00,14.29,135.00
2003/02/01,18:14:58,1,1.90,13.95,14.55,14.04,135.00
2003/02/01,18:29:58,1,1.90,13.27,14.55,14.04,135.00
2003/02/01,18:44:58,1,1.90,12.80,14.55,14.04,135.00
2003/02/01,18:59:58,1,1.90,12.55,14.55,14.04,135.00
2003/02/01,19:14:58,1,1.90,12.20,13.95,12.53,135.00
2003/02/01,19:29:58,1,1.89,12.85,13.95,12.53,135.00
2003/02/01,19:44:58,1,1.89,13.50,13.95,12.53,135.00
2003/02/01,19:59:58,1,1.89,13.70,13.95,12.53,135.00
2003/02/01,20:14:58,1,1.89,13.10,13.91,12.15,135.00
2003/02/01,20:29:58,1,1.89,12.95,13.91,12.15,135.00
2003/02/01,20:44:58,1,1.89,13.00,13.91,12.15,135.00
2003/02/01,20:59:58,1,1.89,12.95,13.91,12.15,135.00
2003/02/01,21:14:58,1,1.89,12.15,13.18,12.74,135.00
2003/02/01,21:29:58,1,1.89,12.05,13.18,12.74,135.00
2003/02/01,21:44:58,1,1.89,12.25,13.18,12.74,135.00
2003/02/01,21:59:58,1,1.89,12.20,13.18,12.74,135.00
2003/02/01,22:14:58,1,1.88,11.75,12.64,11.91,135.00
2003/02/01,22:29:58,1,1.89,11.82,12.64,11.91,135.00
2003/02/01,22:44:58,1,1.88,12.18,12.64,11.91,135.00
2003/02/01,22:59:58,1,1.88,12.45,12.64,11.91,135.00
2003/02/01,23:14:58,1,1.88,12.30,12.55,11.66,135.00
2003/02/01,23:29:58,1,1.88,11.85,12.55,11.66,135.00
2003/02/01,23:44:58,1,1.88,11.60,12.55,11.66,135.00
2003/02/01,23:59:58,1,1.88,11.90,12.55,11.66,135.00
2003/02/02,00:00:01,2,1.88,0.00,15.00,6.75,0.00
2003/02/02,00:14:58,1,1.88,12.05,12.31,11.50,135.00
2003/02/02,00:29:58,1,1.88,11.79,12.31,11.50,135.00
2003/02/02,00:44:58,1,1.88,11.75,12.31,11.50,135.00
2003/02/02,00:59:58,1,1.88,11.70,12.31,11.50,135.00
2003/02/02,01:14:58,1,1.88,11.57,12.19,11.60,135.00
2003/02/02,01:29:58,1,1.88,11.30,12.19,11.60,135.00
2003/02/02,01:44:58,1,1.88,11.15,12.19,11.60,135.00
2003/02/02,01:59:58,1,1.88,10.70,12.19,11.60,135.00
2003/02/02,02:14:58,1,1.88,10.40,11.70,10.68,135.00
2003/02/02,02:29:58,1,1.88,10.20,11.70,10.68,135.00
2003/02/02,02:44:58,1,1.88,9.90,11.70,10.68,135.00
2003/02/02,02:59:58,1,1.87,9.75,11.70,10.68,135.00
2003/02/02,03:14:58,1,1.87,9.50,10.55,9.74,135.00
2003/02/02,03:29:58,1,1.87,9.75,10.55,9.74,135.00
2003/02/02,03:44:58,1,1.87,9.65,10.55,9.74,135.00
2003/02/02,03:59:58,1,1.87,9.35,10.55,9.74,135.00
2003/02/02,04:14:58,1,1.87,9.45,9.80,9.34,135.00
2003/02/02,04:29:58,1,1.87,9.19,9.80,9.34,135.00
2003/02/02,04:44:58,1,1.87,9.35,9.80,9.34,135.00
2003/02/02,04:59:58,1,1.87,9.50,9.80,9.34,135.00
2003/02/02,05:14:58,1,1.87,9.55,9.55,9.05,135.00
2003/02/02,05:29:58,1,1.87,9.50,9.55,9.05,135.00
2003/02/02,05:44:58,1,1.87,9.70,9.55,9.05,135.00
2003/02/02,05:59:58,1,1.87,9.66,9.55,9.05,135.00
2003/02/02,06:14:58,1,1.87,10.10,9.72,9.40,135.00
2003/02/02,06:29:58,1,1.87,10.20,9.72,9.40,135.00
2003/02/02,06:44:58,1,1.87,9.93,9.72,9.40,135.00
2003/02/02,06:59:58,1,1.87,9.91,9.72,9.40,135.00
2003/02/02,07:14:58,1,1.87,9.95,10.35,9.82,135.00
2003/02/02,07:29:58,1,1.87,10.20,10.35,9.82,135.00
2003/02/02,11:59:58,1,0.00,13.02,0.00,0.00,135.00
2003/02/02,12:14:58,1,1.87,13.04,13.05,12.75,135.00
2003/02/02,12:29:58,1,1.87,13.40,13.05,12.75,135.00
2003/02/02,12:44:58,1,1.86,13.95,13.05,12.75,135.00
2003/02/02,12:59:58,1,1.86,14.60,13.05,12.75,135.00
2003/02/02,13:14:58,1,1.86,14.75,14.62,12.85,135.00
2003/02/02,13:29:58,1,1.82,14.90,14.62,12.85,135.00
2003/02/02,13:44:58,1,1.82,14.85,14.62,12.85,135.00
2003/02/02,13:59:58,1,1.82,15.05,14.62,12.85,135.00
2003/02/02,14:14:58,1,1.82,15.20,15.06,14.74,135.00
2003/02/02,14:29:58,1,1.86,15.30,15.06,14.74,135.00
2003/02/02,14:44:58,1,1.86,15.75,15.06,14.74,135.00
2003/02/02,14:59:58,1,1.86,15.85,15.06,14.74,135.00
2003/02/02,15:14:58,1,1.86,15.95,15.86,15.10,135.00
2003/02/02,15:29:58,1,1.85,16.18,15.86,15.10,135.00
2003/02/02,15:44:58,1,1.85,16.50,15.86,15.10,135.00
2003/02/02,15:59:58,1,1.85,16.60,15.86,15.10,135.00
2003/02/02,16:14:58,1,1.85,16.75,16.62,15.95,135.00
2003/02/02,16:29:58,1,1.85,16.80,16.62,15.95,135.00
2003/02/02,16:44:58,1,1.85,16.95,16.62,15.95,135.00
2003/02/02,16:59:58,1,1.85,16.90,16.62,15.95,135.00
2003/02/02,17:14:58,1,1.85,16.90,16.95,16.75,135.00
2003/02/02,17:29:58,1,1.84,16.80,16.95,16.75,135.00
2003/02/02,17:44:58,1,1.84,16.70,16.95,16.75,135.00
2003/02/02,17:59:58,1,1.84,16.70,16.95,16.75,135.00
2003/02/02,18:14:58,1,1.84,16.70,16.90,16.65,135.00
2003/02/02,18:29:58,1,1.84,16.01,16.90,16.65,135.00
2003/02/02,18:44:58,1,1.84,15.75,16.90,16.65,135.00
2003/02/02,18:59:58,1,1.84,16.05,16.90,16.65,135.00
2003/02/02,19:14:58,1,1.84,16.26,16.85,15.70,135.00
2003/02/02,19:29:58,1,1.84,16.10,16.85,15.70,135.00
2003/02/02,19:44:58,1,1.84,16.43,16.85,15.70,135.00
2003/02/02,19:59:58,1,1.84,16.45,16.85,15.70,135.00
2003/02/02,20:14:58,1,1.84,16.35,16.46,16.06,135.00
2003/02/02,20:29:58,1,1.83,16.05,16.46,16.06,135.00
2003/02/02,20:44:58,1,1.83,15.75,16.46,16.06,135.00
2003/02/02,20:59:58,1,1.83,15.50,16.46,16.06,135.00
2003/02/02,21:14:58,1,1.83,15.40,16.40,15.49,135.00
2003/02/02,21:29:58,1,1.83,15.29,16.40,15.49,135.00
2003/02/02,21:44:58,1,1.83,15.20,16.40,15.49,135.00
2003/02/02,21:59:58,1,1.83,15.30,16.40,15.49,135.00
2003/02/02,22:14:58,1,1.83,15.40,15.45,15.20,135.00
2003/02/02,22:29:58,1,1.83,15.40,15.45,15.20,135.00
2003/02/02,22:44:58,1,1.83,15.35,15.45,15.20,135.00
2003/02/02,22:59:58,1,1.83,15.35,15.45,15.20,135.00
2003/02/02,23:14:58,1,1.83,15.10,15.50,15.30,135.00
2003/02/02,23:29:58,1,1.83,14.95,15.50,15.30,135.00
2003/02/02,23:44:58,1,1.83,14.65,15.50,15.30,135.00
2003/02/03,16:59:58,1,0.00,-0.50,0.00,0.00,135.00
2003/02/03,17:14:58,1,1.89,-0.65,-0.45,-0.51,135.00
2003/02/03,17:29:58,1,1.89,-0.95,-0.45,-0.51,135.00
2003/02/03,17:44:58,1,1.89,-1.05,-0.45,-0.51,135.00
2003/02/03,17:59:58,1,1.89,-1.20,-0.45,-0.51,135.00
2003/02/03,18:14:58,1,1.89,-1.20,-0.60,-1.20,135.00
2003/02/03,18:29:58,1,1.89,-1.40,-0.60,-1.20,135.00
2003/02/03,18:44:58,1,1.89,-1.50,-0.60,-1.20,135.00
2003/02/03,18:59:58,1,1.89,-1.65,-0.60,-1.20,135.00
2003/02/03,19:14:58,1,1.89,-1.70,-1.15,-1.65,135.00
2003/02/04,10:59:58,1,0.00,-5.44,0.00,0.00,135.00
2003/02/04,11:14:58,1,1.88,-5.20,-5.36,-5.64,135.00
2003/02/04,11:29:58,1,1.88,-5.00,-5.36,-5.64,135.00
2003/02/04,11:44:58,1,1.88,-4.35,-5.36,-5.64,135.00